Flag for Canada Weather past 2 weeks in Burnaby, British Columbia, Canada

Now
52 °F

Passing clouds.


Feels Like: 49 °F
Forecast: 46 / 63 °F
Wind: 7 mph from East

Location: Vancouver International Air-Port

Current Time: Apr 21, 2015 at 1:51:24 AM

Latest Report: Apr 21, 2015 at 1:00 AM


Visibility: 20 mi

Pressure: 29.84 "Hg

Humidity: 82%

Dew point: 46 °F

Location of BurnabyLocation

Historic Weather in Burnaby — Graph

°F

Burnaby temperature yesterday

Maximum temperature yesterday: 63 °F (at 3:00 PM)
Minimum temperature yesterday: 45 °F (at 6:00 AM)
Average temperature yesterday: 54 °F

Past Weeks' High & Low Weather Summary

 TemperatureHumidityPressure
High63 °F (Apr 20, 3:00 PM)94% (Apr 17, 6:00 AM)30.54 "Hg (Apr 17, 6:00 AM)
Low37 °F (Apr 7, 7:00 AM)47% (Apr 11, 3:00 PM)29.68 "Hg (Apr 6, 1:00 AM)
Average49 °F75%30.08 "Hg
* Reported Apr 6 1:00 AM — Apr 21 1:00 AM, Burnaby, Weather by CustomWeather, © 2015

Note: Actual official high and low records may vary slightly from our data, if they occured in-between our weather recording intervals... More about our weather records

Advertising

Burnaby weather history for previous 24 hours

 ConditionsComfort  
Time TempWeatherWind HumidityBarometerVisibility
1:00 AM
Tue, Apr 21
52 °FPassing clouds.7 mph82%29.84 "Hg20 mi
12:00 AM52 °FPassing clouds.8 mph82%29.83 "Hg20 mi
11:00 PM
Mon, Apr 20
54 °FPassing clouds.6 mph72%29.83 "Hg30 mi
10:00 PM54 °FPassing clouds.2 mph88%29.83 "Hg30 mi
9:00 PM54 °FScattered clouds.No wind88%29.83 "Hg30 mi
8:00 PM57 °FPassing clouds.No wind67%29.83 "Hg30 mi
7:00 PM59 °FPassing clouds.2 mph68%29.83 "Hg30 mi
6:00 PM59 °FPassing clouds.5 mph68%29.85 "Hg30 mi
5:00 PM59 °FPassing clouds.7 mph72%29.85 "Hg30 mi
4:00 PM61 °FPassing clouds.7 mph59%29.88 "Hg30 mi
3:00 PM63 °FSunny.7 mph59%29.90 "Hg30 mi
2:00 PM61 °FSunny.7 mph68%29.91 "Hg30 mi
1:00 PM61 °FSunny.7 mph72%29.93 "Hg30 mi
12:00 PM59 °FSunny.8 mph72%29.95 "Hg30 mi
11:00 AM59 °FSunny.9 mph72%29.96 "Hg30 mi
10:00 AM57 °FSunny.8 mph72%29.96 "Hg30 mi
9:00 AM55 °FSunny.6 mph82%29.97 "Hg30 mi
8:00 AM52 °FPassing clouds.No wind82%29.97 "Hg25 mi
7:00 AM46 °FPassing clouds.2 mph87%29.97 "Hg25 mi
6:00 AM45 °FPassing clouds.2 mph93%29.97 "Hg30 mi
5:00 AM46 °FPassing clouds.No wind87%29.97 "Hg20 mi
4:00 AM46 °FPassing clouds.No wind87%29.97 "Hg20 mi
3:00 AM46 °FPassing clouds.3 mph82%29.98 "Hg20 mi
2:00 AM48 °FPassing clouds.3 mph76%29.98 "Hg30 mi
1:00 AM50 °FPassing clouds.3 mph76%29.98 "Hg30 mi
Weather by CustomWeather, © 2015

See weather overviewHow to use our weather pages